This is the latest recevied weather packets stored in our database for station/object KC4BAM. If no packets are shown the sender has not sent any weather packets the latest 10 day(s).
| Time | Temp. | Humidity | Pressure | Rain* | Wind** | Luminosity | Snow |
|---|---|---|---|---|---|---|---|
| 1777471655 | 18.89° C | 95% | 1002.4 hPa | 0 mm | - | 61 W/m² | - |
| 1777471351 | 18.89° C | 95% | 1002.4 hPa | 0 mm | - | 81 W/m² | - |
| 1777471048 | 18.89° C | 95% | 1002.4 hPa | 0 mm | - | 56 W/m² | - |
| 1777470744 | 18.89° C | 95% | 1002.4 hPa | 0 mm | - | 146 W/m² | - |
| 1777470441 | 18.89° C | 95% | 1002.2 hPa | 0 mm | - | 175 W/m² | - |
| 1777470138 | 18.89° C | 95% | 1002.3 hPa | 0 mm | - | 55 W/m² | - |
| 1777469834 | 18.33° C | 94% | 1002.2 hPa | 0 mm | - | 59 W/m² | - |
| 1777469530 | 18.33° C | 94% | 1002.2 hPa | 0 mm | - | 51 W/m² | - |
| 1777469225 | 18.89° C | 95% | 1002 hPa | 0 mm | - | 53 W/m² | - |
| 1777468925 | 18.89° C | 95% | 1002 hPa | 0 mm | - | 47 W/m² | - |
| 1777468621 | 18.33° C | 94% | 1002.1 hPa | 0 mm | - | 85 W/m² | - |
| 1777468318 | 18.33° C | 95% | 1002 hPa | 0 mm | - | 76 W/m² | - |
| 1777468014 | 18.33° C | 95% | 1001.8 hPa | 0 mm | - | 124 W/m² | - |
| 1777467710 | 18.33° C | 95% | 1001.4 hPa | 0 mm | - | 119 W/m² | - |
| 1777467406 | 18.33° C | 95% | 1001.6 hPa | 0 mm | - | 92 W/m² | - |
| 1777467101 | 18.33° C | 95% | 1001.7 hPa | 0 mm | - | 44 W/m² | - |
| 1777466798 | 18.33° C | 95% | 1001.9 hPa | 0 mm | - | 129 W/m² | - |
| 1777466497 | 17.78° C | 96% | 1001.9 hPa | 0 mm | - | 66 W/m² | - |
| 1777466192 | 17.78° C | 96% | 1002.1 hPa | 0 mm | - | 61 W/m² | - |
| 1777465889 | 17.78° C | 96% | 1002.1 hPa | 0 mm | - | 52 W/m² | - |
| 1777465585 | 17.78° C | 96% | 1002.1 hPa | 0 mm | - | 66 W/m² | - |
| 1777465281 | 17.78° C | 95% | 1002.3 hPa | 0 mm | - | 56 W/m² | - |
| 1777464975 | 17.78° C | 95% | 1002.2 hPa | 0 mm | - | 35 W/m² | - |
| 1777464670 | 17.78° C | 95% | 1002.3 hPa | 0 mm | - | 22 W/m² | - |
| 1777464367 | 17.78° C | 95% | 1002.2 hPa | 0 mm | - | 15 W/m² | - |
* Rain latest hour (hover to see other rain measurements)
** Current wind speed in m/s (hover to see current wind gust speed)